| time (UTC) | temp C | wind direction | speed KPH | gust KPH | rain 1hr cm | rain 24hr cm | rain mn cm | humidity % | barometer mb |
| 20260506045004 | 23 | 279 | 4.8 | 12.9 | 0.00 | 0.00 | 0.00 | 88 | 994.0 |
| 20260506044504 | 23 | 257 | 4.8 | 11.3 | 0.00 | 0.00 | 0.00 | 88 | 994.0 |
| 20260506043505 | 23 | 272 | 3.2 | 8.0 | 0.00 | 0.00 | 0.00 | 88 | 994.1 |
| 20260506043004 | 23 | 250 | 3.2 | 8.0 | 0.00 | 0.00 | 0.00 | 88 | 994.0 |
| 20260506042504 | 23 | 262 | 3.2 | 3.2 | 0.00 | 0.00 | 0.00 | 87 | 994.0 |
| 20260506042004 | 24 | 239 | 1.6 | 8.0 | 0.00 | 0.00 | 0.00 | 87 | 993.8 |
| 20260506041504 | 24 | 266 | 3.2 | 8.0 | 0.00 | 0.00 | 0.00 | 87 | 993.8 |
| 20260506041004 | 24 | 245 | 3.2 | 8.0 | 0.00 | 0.00 | 0.00 | 87 | 993.8 |
| 20260506035505 | 24 | 211 | 3.2 | 8.0 | 0.00 | 0.00 | 0.00 | 86 | 993.5 |
| 20260506034504 | 24 | 259 | 3.2 | 8.0 | 0.00 | 0.00 | 0.00 | 85 | 993.7 |
| 20260506034004 | 24 | 252 | 4.8 | 8.0 | 0.00 | 0.00 | 0.00 | 85 | 993.6 |
| 20260506033504 | 24 | 264 | 3.2 | 4.8 | 0.00 | 0.00 | 0.00 | 85 | 993.4 |
| 20260506033005 | 24 | 206 | 4.8 | 12.9 | 0.00 | 0.00 | 0.00 | 84 | 993.4 |
| 20260506032504 | 25 | 271 | 6.4 | 12.9 | 0.00 | 0.00 | 0.00 | 84 | 993.3 |
| 20260506032005 | 25 | 234 | 1.6 | 8.0 | 0.00 | 0.00 | 0.00 | 84 | 993.4 |
| 20260506031005 | 25 | 267 | 4.8 | 8.0 | 0.00 | 0.00 | 0.00 | 83 | 993.3 |
| 20260506030504 | 25 | 258 | 1.6 | 9.7 | 0.00 | 0.00 | 0.00 | 83 | 993.1 |
| 20260506030004 | 25 | 261 | 3.2 | 9.7 | 0.00 | 0.00 | 0.00 | 82 | 993.1 |
| 20260506025504 | 25 | 303 | 4.8 | 11.3 | 0.00 | 0.00 | 0.00 | 82 | 993.0 |
| 20260506025004 | 25 | 270 | 1.6 | 4.8 | 0.00 | 0.00 | 0.00 | 82 | 993.1 |
| 20260506024004 | 25 | 172 | 4.8 | 8.0 | 0.00 | 0.00 | 0.00 | 81 | 992.8 |
| 20260506023505 | 25 | 262 | 4.8 | 8.0 | 0.00 | 0.00 | 0.00 | 81 | 992.8 |
| 20260506023004 | 25 | 246 | 3.2 | 8.0 | 0.00 | 0.00 | 0.00 | 81 | 992.8 |
| 20260506022504 | 25 | 268 | 4.8 | 8.0 | 0.00 | 0.00 | 0.00 | 80 | 992.7 |
| 20260506022004 | 25 | 253 | 4.8 | 9.7 | 0.00 | 0.00 | 0.00 | 80 | 992.5 |
| 20260506021504 | 25 | 243 | 3.2 | 8.0 | 0.00 | 0.00 | 0.00 | 80 | 992.5 |
| 20260506020504 | 26 | 232 | 4.8 | 11.3 | 0.00 | 0.00 | 0.00 | 79 | 992.4 |
| 20260506015504 | 26 | 237 | 4.8 | 8.0 | 0.00 | 0.00 | 0.00 | 78 | 992.3 |
| 20260506015004 | 26 | 243 | 3.2 | 4.8 | 0.00 | 0.00 | 0.00 | 77 | 992.3 |
| 20260506014504 | 26 | 281 | 3.2 | 9.7 | 0.00 | 0.00 | 0.00 | 77 | 992.0 |
| 20260506014004 | 26 | 253 | 4.8 | 11.3 | 0.00 | 0.00 | 0.00 | 77 | 992.0 |
| 20260506013504 | 26 | 239 | 3.2 | 12.9 | 0.00 | 0.00 | 0.00 | 77 | 992.0 |
| 20260506013004 | 26 | 240 | 8.0 | 12.9 | 0.00 | 0.00 | 0.00 | 76 | 992.0 |
| 20260506012504 | 26 | 263 | 3.2 | 4.8 | 0.00 | 0.00 | 0.00 | 76 | 991.9 |
| 20260506011504 | 26 | 270 | 1.6 | 1.6 | 0.00 | 0.00 | 0.00 | 75 | 991.8 |
| 20260506011004 | 26 | 313 | 0.0 | 0.0 | 0.00 | 0.00 | 0.00 | 74 | 992.0 |
| 20260506005004 | 27 | 257 | 1.6 | 3.2 | 0.00 | 0.00 | 0.00 | 72 | 991.9 |
| 20260506004504 | 27 | 276 | 1.6 | 8.0 | 0.00 | 0.00 | 0.00 | 72 | 991.8 |
| 20260506004004 | 27 | 292 | 1.6 | 4.8 | 0.00 | 0.00 | 0.00 | 71 | 992.0 |
| 20260506003504 | 27 | 240 | 1.6 | 8.0 | 0.00 | 0.00 | 0.00 | 71 | 992.1 |
| 20260506003004 | 27 | 354 | 0.0 | 8.0 | 0.00 | 0.00 | 0.00 | 71 | 991.9 |
| 20260506002504 | 27 | 281 | 3.2 | 8.0 | 0.00 | 0.00 | 0.00 | 70 | 992.0 |
| 20260506002004 | 27 | 277 | 3.2 | 8.0 | 0.00 | 0.00 | 0.00 | 70 | 992.1 |
| 20260506001504 | 27 | 218 | 3.2 | 8.0 | 0.00 | 0.00 | 0.00 | 70 | 991.9 |
| 20260506001004 | 27 | 273 | 3.2 | 11.3 | 0.00 | 0.00 | 0.00 | 70 | 991.8 |
| 20260506000504 | 27 | 230 | 1.6 | 11.3 | 0.00 | 0.00 | 0.00 | 70 | 992.0 |
| 20260505235504 | 27 | 8 | 1.6 | 12.9 | 0.00 | 0.00 | 0.00 | 70 | 992.0 |
| 20260505235004 | 27 | 250 | 3.2 | 4.8 | 0.00 | 0.00 | 0.00 | 70 | 992.0 |
| 20260505234504 | 28 | 277 | 4.8 | 12.9 | 0.00 | 0.00 | 0.00 | 70 | 992.0 |
| 20260505234004 | 28 | 340 | 3.2 | 8.0 | 0.00 | 0.00 | 0.00 | 69 | 991.9 |
| 20260505232004 | 28 | 250 | 3.2 | 12.9 | 0.00 | 0.00 | 0.00 | 68 | 991.8 |
| 20260505231504 | 28 | 248 | 1.6 | 14.5 | 0.00 | 0.00 | 0.00 | 67 | 991.6 |
| 20260505231005 | 28 | 237 | 1.6 | 9.7 | 0.00 | 0.00 | 0.00 | 67 | 991.5 |
| 20260505230504 | 28 | 88 | 3.2 | 9.7 | 0.00 | 0.00 | 0.00 | 67 | 991.5 |
| 20260505230004 | 28 | 273 | 1.6 | 4.8 | 0.00 | 0.00 | 0.00 | 66 | 991.4 |
| 20260505225504 | 28 | 301 | 4.8 | 9.7 | 0.00 | 0.00 | 0.00 | 66 | 991.4 |
| 20260505225004 | 28 | 294 | 3.2 | 14.5 | 0.00 | 0.00 | 0.00 | 66 | 991.4 |
| 20260505224504 | 28 | 306 | 3.2 | 14.5 | 0.00 | 0.00 | 0.00 | 66 | 991.3 |
| 20260505224004 | 29 | 301 | 3.2 | 14.5 | 0.00 | 0.00 | 0.00 | 65 | 991.3 |
| 20260505223504 | 29 | 299 | 1.6 | 8.0 | 0.00 | 0.00 | 0.00 | 65 | 991.4 |
| 20260505223004 | 29 | 276 | 3.2 | 8.0 | 0.00 | 0.00 | 0.00 | 65 | 991.3 |
| 20260505222504 | 29 | 259 | 3.2 | 11.3 | 0.00 | 0.00 | 0.00 | 65 | 991.4 |
| 20260505221504 | 29 | 267 | 1.6 | 4.8 | 0.00 | 0.00 | 0.00 | 67 | 991.2 |
| 20260505221004 | 29 | 306 | 3.2 | 11.3 | 0.00 | 0.00 | 0.00 | 67 | 991.3 |
| 20260505220504 | 29 | 221 | 4.8 | 12.9 | 0.00 | 0.00 | 0.00 | 65 | 991.4 |
| 20260505220004 | 29 | 249 | 6.4 | 11.3 | 0.00 | 0.00 | 0.00 | 65 | 991.3 |
| 20260505215504 | 29 | 272 | 3.2 | 14.5 | 0.00 | 0.00 | 0.00 | 66 | 991.6 |
| 20260505214504 | 30 | 308 | 4.8 | 14.5 | 0.00 | 0.00 | 0.00 | 64 | 991.7 |
| 20260505213004 | 30 | 251 | 4.8 | 12.9 | 0.00 | 0.00 | 0.00 | 64 | 991.6 |
| 20260505212504 | 30 | 292 | 4.8 | 11.3 | 0.00 | 0.00 | 0.00 | 64 | 991.7 |
| 20260505212004 | 30 | 302 | 4.8 | 12.9 | 0.00 | 0.00 | 0.00 | 65 | 991.9 |
| 20260505211004 | 30 | 252 | 1.6 | 9.7 | 0.00 | 0.00 | 0.00 | 65 | 992.0 |
| 20260505210504 | 30 | 241 | 4.8 | 9.7 | 0.00 | 0.00 | 0.00 | 63 | 992.1 |
| 20260505205504 | 30 | 284 | 8.0 | 14.5 | 0.00 | 0.00 | 0.00 | 64 | 992.2 |
| 20260505205004 | 29 | 228 | 1.6 | 4.8 | 0.00 | 0.00 | 0.00 | 65 | 992.1 |
| 20260505204504 | 30 | 326 | 1.6 | 11.3 | 0.00 | 0.00 | 0.00 | 64 | 992.4 |
| 20260505204005 | 30 | 126 | 1.6 | 11.3 | 0.00 | 0.00 | 0.00 | 63 | 992.2 |
| 20260505203005 | 29 | 247 | 3.2 | 8.0 | 0.00 | 0.00 | 0.00 | 64 | 992.2 |
| 20260505202504 | 29 | 304 | 8.0 | 14.5 | 0.00 | 0.00 | 0.00 | 64 | 992.4 |
| 20260505202004 | 29 | 234 | 6.4 | 16.1 | 0.00 | 0.00 | 0.00 | 65 | 992.5 |
| 20260505201504 | 29 | 280 | 4.8 | 14.5 | 0.00 | 0.00 | 0.00 | 64 | 992.5 |
| 20260505201004 | 29 | 209 | 3.2 | 16.1 | 0.00 | 0.00 | 0.00 | 64 | 992.7 |
| 20260505200504 | 29 | 301 | 4.8 | 11.3 | 0.00 | 0.00 | 0.00 | 64 | 992.7 |
| 20260505195504 | 29 | 200 | 3.2 | 11.3 | 0.00 | 0.00 | 0.00 | 64 | 992.7 |
| 20260505195004 | 29 | 299 | 4.8 | 9.7 | 0.00 | 0.00 | 0.00 | 64 | 992.7 |
| 20260505194504 | 29 | 280 | 3.2 | 9.7 | 0.00 | 0.00 | 0.00 | 65 | 992.9 |
| 20260505194004 | 28 | 321 | 8.0 | 14.5 | 0.00 | 0.00 | 0.00 | 66 | 992.9 |
| 20260505193504 | 28 | 34 | 1.6 | 16.1 | 0.00 | 0.00 | 0.00 | 67 | 993.1 |
| 20260505193004 | 28 | 288 | 4.8 | 12.9 | 0.00 | 0.00 | 0.00 | 66 | 992.9 |
| 20260505192504 | 28 | 288 | 8.0 | 12.9 | 0.00 | 0.00 | 0.00 | 67 | 993.2 |
| 20260505192004 | 28 | 332 | 4.8 | 11.3 | 0.00 | 0.00 | 0.00 | 68 | 993.2 |
| 20260505191504 | 28 | 274 | 3.2 | 16.1 | 0.00 | 0.00 | 0.00 | 68 | 993.3 |
| 20260505191004 | 28 | 189 | 4.8 | 16.1 | 0.00 | 0.00 | 0.00 | 68 | 993.2 |
| 20260505190504 | 28 | 268 | 4.8 | 16.1 | 0.00 | 0.00 | 0.00 | 68 | 993.2 |
| 20260505190004 | 28 | 303 | 6.4 | 14.5 | 0.00 | 0.00 | 0.00 | 68 | 993.2 |
| 20260505185504 | 28 | 8 | 3.2 | 14.5 | 0.00 | 0.00 | 0.00 | 69 | 993.3 |
| 20260505185004 | 28 | 337 | 8.0 | 12.9 | 0.00 | 0.00 | 0.00 | 68 | 993.4 |
| 20260505184004 | 27 | 314 | 4.8 | 11.3 | 0.00 | 0.00 | 0.00 | 71 | 993.5 |
| 20260505183504 | 27 | 210 | 4.8 | 9.7 | 0.00 | 0.00 | 0.00 | 71 | 993.6 |
| 20260505182505 | 27 | 317 | 4.8 | 12.9 | 0.00 | 0.00 | 0.00 | 70 | 993.8 |
| 20260505182004 | 27 | 269 | 6.4 | 14.5 | 0.00 | 0.00 | 0.00 | 72 | 993.8 |
| 20260505181504 | 26 | 310 | 3.2 | 14.5 | 0.00 | 0.00 | 0.00 | 72 | 993.9 |
| 20260505181004 | 26 | 353 | 6.4 | 14.5 | 0.00 | 0.00 | 0.00 | 72 | 994.0 |
| 20260505180504 | 27 | 306 | 4.8 | 11.3 | 0.00 | 0.00 | 0.00 | 71 | 994.1 |
| 20260505180004 | 26 | 286 | 4.8 | 12.9 | 0.00 | 0.00 | 0.00 | 74 | 994.2 |
| 20260505175504 | 25 | 350 | 8.0 | 14.5 | 0.00 | 0.00 | 0.00 | 75 | 994.2 |
| 20260505175004 | 26 | 317 | 4.8 | 14.5 | 0.00 | 0.00 | 0.00 | 75 | 994.3 |
| 20260505174504 | 25 | 311 | 4.8 | 14.5 | 0.00 | 0.00 | 0.00 | 76 | 994.4 |
| 20260505174004 | 25 | 339 | 3.2 | 14.5 | 0.00 | 0.00 | 0.00 | 76 | 994.5 |
| 20260505173004 | 25 | 304 | 4.8 | 11.3 | 0.00 | 0.00 | 0.00 | 78 | 994.3 |
| 20260505172505 | 24 | 354 | 3.2 | 11.3 | 0.00 | 0.00 | 0.00 | 79 | 994.5 |
| 20260505172004 | 24 | 7 | 1.6 | 14.5 | 0.00 | 0.00 | 0.00 | 79 | 994.5 |
| 20260505171504 | 24 | 321 | 3.2 | 4.8 | 0.00 | 0.00 | 0.00 | 80 | 994.6 |
| 20260505171004 | 24 | 11 | 1.6 | 16.1 | 0.00 | 0.00 | 0.00 | 80 | 994.6 |
| 20260505170504 | 23 | 337 | 6.4 | 16.1 | 0.00 | 0.00 | 0.00 | 81 | 994.5 |
| 20260505170004 | 23 | 292 | 4.8 | 11.3 | 0.00 | 0.00 | 0.00 | 81 | 994.6 |
| 20260505165504 | 23 | 93 | 1.6 | 11.3 | 0.00 | 0.00 | 0.00 | 81 | 994.5 |
| 20260505165004 | 23 | 194 | 1.6 | 11.3 | 0.00 | 0.00 | 0.00 | 81 | 994.6 |
| 20260505164504 | 23 | 275 | 4.8 | 12.9 | 0.00 | 0.00 | 0.00 | 81 | 994.5 |
| 20260505164004 | 23 | 271 | 4.8 | 19.3 | 0.00 | 0.00 | 0.00 | 82 | 994.5 |
| 20260505163504 | 23 | 317 | 6.4 | 19.3 | 0.00 | 0.00 | 0.00 | 81 | 994.5 |
| 20260505163004 | 23 | 38 | 3.2 | 9.7 | 0.00 | 0.00 | 0.00 | 82 | 994.5 |
| 20260505162505 | 23 | 356 | 3.2 | 9.7 | 0.00 | 0.00 | 0.00 | 83 | 994.7 |
| 20260505162004 | 22 | 345 | 3.2 | 11.3 | 0.00 | 0.00 | 0.00 | 84 | 994.8 |
| 20260505160504 | 22 | 38 | 3.2 | 12.9 | 0.00 | 0.00 | 0.00 | 85 | 994.5 |
| 20260505153005 | 22 | 311 | 4.8 | 14.5 | 0.00 | 0.00 | 0.00 | 85 | 994.5 |
| 20260505152504 | 22 | 336 | 4.8 | 14.5 | 0.00 | 0.00 | 0.00 | 85 | 994.6 |
| 20260505152004 | 22 | 21 | 3.2 | 14.5 | 0.00 | 0.00 | 0.00 | 86 | 994.5 |
| 20260505151504 | 22 | 249 | 3.2 | 8.0 | 0.00 | 0.00 | 0.00 | 86 | 994.6 |
| 20260505151004 | 22 | 98 | 3.2 | 11.3 | 0.00 | 0.00 | 0.00 | 86 | 994.5 |
| 20260505150504 | 22 | 317 | 1.6 | 14.5 | 0.00 | 0.00 | 0.00 | 87 | 994.6 |
| 20260505140504 | 21 | 294 | 3.2 | 11.3 | 0.00 | 0.00 | 0.00 | 87 | 993.9 |
| 20260505125004 | 21 | 307 | 6.4 | 12.9 | 0.00 | 0.00 | 0.00 | 88 | 993.3 |
| 20260505124504 | 21 | 268 | 4.8 | 9.7 | 0.00 | 0.00 | 0.00 | 88 | 993.4 |
| 20260505124004 | 21 | 31 | 8.0 | 12.9 | 0.00 | 0.00 | 0.00 | 88 | 993.3 |
| 20260505123504 | 21 | 307 | 3.2 | 14.5 | 0.00 | 0.00 | 0.00 | 88 | 993.2 |
| 20260505123004 | 21 | 291 | 4.8 | 11.3 | 0.00 | 0.00 | 0.00 | 88 | 993.1 |
| 20260505122004 | 21 | 5 | 8.0 | 12.9 | 0.00 | 0.00 | 0.00 | 89 | 992.9 |
| 20260505121504 | 20 | 293 | 6.4 | 12.9 | 0.00 | 0.00 | 0.00 | 89 | 992.7 |
| 20260505121004 | 20 | 348 | 6.4 | 19.3 | 0.00 | 0.00 | 0.00 | 89 | 992.7 |
| 20260505120504 | 20 | 278 | 4.8 | 14.5 | 0.00 | 0.00 | 0.00 | 89 | 992.5 |
| 20260505120005 | 20 | 309 | 4.8 | 19.3 | 0.00 | 0.00 | 0.00 | 89 | 992.5 |
| 20260505115504 | 20 | 345 | 1.6 | 4.8 | 0.00 | 0.00 | 0.00 | 89 | 992.4 |
| 20260505115004 | 20 | 208 | 3.2 | 9.7 | 0.00 | 0.00 | 0.00 | 89 | 992.3 |
| 20260505114004 | 20 | 290 | 1.6 | 11.3 | 0.00 | 0.00 | 0.00 | 89 | 992.3 |
| 20260505112504 | 21 | 351 | 4.8 | 9.7 | 0.00 | 0.00 | 0.00 | 89 | 992.5 |
| 20260505112004 | 21 | 288 | 6.4 | 16.1 | 0.00 | 0.00 | 0.00 | 88 | 992.4 |
| 20260505111504 | 21 | 314 | 4.8 | 12.9 | 0.00 | 0.00 | 0.00 | 88 | 992.5 |
| 20260505111004 | 21 | 270 | 6.4 | 12.9 | 0.00 | 0.00 | 0.00 | 88 | 992.2 |
| 20260505110504 | 21 | 0 | 4.8 | 12.9 | 0.00 | 0.00 | 0.00 | 88 | 992.4 |
| 20260505102004 | 21 | 336 | 3.2 | 14.5 | 0.00 | 0.00 | 0.00 | 88 | 992.7 |
| 20260505101504 | 21 | 315 | 4.8 | 14.5 | 0.00 | 0.00 | 0.00 | 88 | 992.7 |
| 20260505100504 | 21 | 338 | 3.2 | 9.7 | 0.00 | 0.00 | 0.00 | 88 | 992.9 |
| 20260505100004 | 21 | 335 | 4.8 | 9.7 | 0.00 | 0.00 | 0.00 | 88 | 992.8 |
| 20260505095504 | 21 | 324 | 4.8 | 19.3 | 0.00 | 0.00 | 0.00 | 88 | 993.0 |
| 20260505095004 | 21 | 283 | 4.8 | 14.5 | 0.00 | 0.00 | 0.00 | 88 | 992.9 |
| 20260505094504 | 21 | 273 | 6.4 | 16.1 | 0.00 | 0.00 | 0.00 | 88 | 993.0 |
| 20260505094004 | 21 | 307 | 4.8 | 16.1 | 0.00 | 0.00 | 0.00 | 88 | 992.8 |
| 20260505093504 | 21 | 101 | 6.4 | 14.5 | 0.00 | 0.00 | 0.00 | 88 | 992.9 |
| 20260505092504 | 21 | 12 | 3.2 | 9.7 | 0.00 | 0.00 | 0.00 | 88 | 992.8 |
| 20260505091004 | 21 | 268 | 8.0 | 20.9 | 0.00 | 0.00 | 0.00 | 87 | 993.1 |
| 20260505090504 | 21 | 321 | 4.8 | 12.9 | 0.00 | 0.00 | 0.00 | 87 | 993.1 |
| 20260505085504 | 21 | 18 | 8.0 | 14.5 | 0.00 | 0.00 | 0.00 | 87 | 993.1 |
| 20260505084504 | 21 | 18 | 8.0 | 20.9 | 0.00 | 0.00 | 0.00 | 87 | 993.4 |
| 20260505084004 | 21 | 333 | 4.8 | 12.9 | 0.00 | 0.00 | 0.00 | 87 | 993.2 |
| 20260505083504 | 21 | 296 | 4.8 | 12.9 | 0.00 | 0.00 | 0.00 | 87 | 993.2 |
| 20260505083004 | 21 | 324 | 8.0 | 12.9 | 0.00 | 0.00 | 0.00 | 86 | 993.2 |
| 20260505082504 | 21 | 297 | 9.7 | 19.3 | 0.00 | 0.00 | 0.00 | 86 | 993.3 |
| 20260505082004 | 21 | 225 | 4.8 | 12.9 | 0.00 | 0.00 | 0.00 | 86 | 993.3 |
| 20260505081504 | 21 | 294 | 4.8 | 16.1 | 0.00 | 0.00 | 0.00 | 86 | 993.3 |
| 20260505081004 | 21 | 261 | 6.4 | 14.5 | 0.00 | 0.00 | 0.00 | 86 | 993.3 |
| 20260505080504 | 21 | 324 | 4.8 | 16.1 | 0.00 | 0.00 | 0.00 | 86 | 993.4 |
| 20260505080004 | 21 | 287 | 8.0 | 22.5 | 0.00 | 0.00 | 0.00 | 86 | 993.4 |
| 20260505075504 | 21 | 322 | 4.8 | 22.5 | 0.00 | 0.00 | 0.00 | 86 | 993.5 |
| 20260505074504 | 21 | 322 | 4.8 | 16.1 | 0.00 | 0.00 | 0.00 | 86 | 993.5 |
| 20260505073504 | 21 | 344 | 4.8 | 14.5 | 0.00 | 0.00 | 0.00 | 86 | 993.8 |
| 20260505072504 | 21 | 312 | 6.4 | 14.5 | 0.00 | 0.00 | 0.00 | 86 | 993.9 |
| 20260505072004 | 21 | 315 | 8.0 | 16.1 | 0.00 | 0.00 | 0.00 | 86 | 994.1 |
| 20260505071504 | 21 | 344 | 8.0 | 14.5 | 0.00 | 0.00 | 0.00 | 86 | 994.1 |
| 20260505071004 | 21 | 281 | 3.2 | 19.3 | 0.00 | 0.00 | 0.00 | 86 | 994.3 |
| 20260505070504 | 21 | 331 | 4.8 | 19.3 | 0.00 | 0.00 | 0.00 | 86 | 994.2 |
| 20260505070004 | 21 | 63 | 4.8 | 19.3 | 0.00 | 0.00 | 0.00 | 86 | 994.3 |
| 20260505065504 | 21 | 357 | 4.8 | 11.3 | 0.00 | 0.00 | 0.00 | 86 | 994.4 |
| 20260505065004 | 21 | 220 | 9.7 | 22.5 | 0.00 | 0.00 | 0.00 | 86 | 994.5 |
| 20260505063004 | 21 | 296 | 4.8 | 12.9 | 0.00 | 0.00 | 0.00 | 85 | 994.4 |
| 20260505062504 | 21 | 264 | 8.0 | 12.9 | 0.00 | 0.00 | 0.00 | 85 | 994.6 |
| 20260505062005 | 21 | 286 | 4.8 | 12.9 | 0.00 | 0.00 | 0.00 | 85 | 994.7 |
| 20260505061505 | 21 | 252 | 8.0 | 16.1 | 0.00 | 0.00 | 0.00 | 85 | 994.6 |
| 20260505061004 | 21 | 267 | 3.2 | 8.0 | 0.00 | 0.00 | 0.00 | 85 | 994.7 |
| 20260505060504 | 21 | 318 | 8.0 | 16.1 | 0.00 | 0.00 | 0.00 | 85 | 994.7 |